This demonstration page uses our WeatherBlox Daily Observations layout. Learn more.

38.89511, -77.03637

Hourly Observations for November 21, 2019

Temp ( °F °C ) Dew Point ( °F °C ) Humidity (%) Winds ( mph kmh ) Pressure ( in mb ) Visibility ( mi km ) Precip ( " mm )
12:52 am 00:52 Clear 46 7.8 32 0 58 58 NW 9 15 30.21 1023 10 16.09344 0 0
1:52 am 01:52 Clear 45 7.2 31 -0.6 58 58 NW 9 15 30.24 1024 10 16.09344 0 0
2:52 am 02:52 Mostly Clear 43 6.1 31 -0.6 63 63 NNW 8 13 30.24 1024 10 16.09344 0 0
3:52 am 03:52 Partly Cloudy 40 4.4 31 -0.6 70 70 N 8 13 30.24 1024 10 16.09344 0 0
4:52 am 04:52 Partly Cloudy 41 5 31 -0.6 67 67 NNW 7 11 30.24 1024 10 16.09344 0 0
5:52 am 05:52 Mostly Cloudy 41 5 30 -1.1 65 65 NNW 7 11 30.27 1025 10 16.09344 0 0
6:52 am 06:52 Mostly Cloudy 43 6.1 30 -1.1 60 60 NW 6 9 30.27 1025 10 16.09344 0 0
7:52 am 07:52 Mostly Cloudy 45 7.2 31 -0.6 58 58 NNW 6 9 30.27 1025 10 16.09344 0 0
8:52 am 08:52 Mostly Cloudy 45 7.2 33 0.6 63 63 ESE 3 6 30.27 1025 10 16.09344 0 0
10:52 am 10:52 Partly Cloudy 51 10.6 32 0 48 48 NE 7 11 30.27 1025 10 16.09344 0 0
11:52 am 11:52 Mostly Cloudy 51 10.6 31 -0.6 46 46 E 3 6 30.21 1023 10 16.09344 0 0
12:52 pm 12:52 Cloudy 52 11.1 33 0.6 49 49 SSE 6 9 30.18 1022 10 16.09344 0 0
1:52 pm 13:52 Mostly Cloudy 52 11.1 35 1.7 53 53 S 9 15 30.18 1022 10 16.09344 0 0
2:52 pm 14:52 Mostly Cloudy 52 11.1 36 2.2 55 55 S 13 20 30.15 1021 10 16.09344 0 0
3:52 pm 15:52 Mostly Cloudy 52 11.1 33 0.6 49 49 S 9 15 30.15 1021 10 16.09344 0 0
4:52 pm 16:52 Mostly Cloudy 51 10.6 36 2.2 56 56 S 8 13 30.12 1020 10 16.09344 0 0
5:52 pm 17:52 Cloudy 51 10.6 35 1.7 54 54 S 8 13 30.12 1020 10 16.09344 0 0
7:52 pm 19:52 Mostly Cloudy 49 9.4 37 2.8 64 64 S 10 17 30.09 1019 10 16.09344 0 0
8:52 pm 20:52 Mostly Cloudy 50 10 38 3.3 63 63 S 13 20 30.06 1018 10 16.09344 0 0
9:52 pm 21:52 Cloudy 51 10.6 37 2.8 59 59 S 13 20 30.03 1017 10 16.09344 0 0
10:52 pm 22:52 Cloudy 50 10 38 3.3 63 63 S 12 19 30 1016 10 16.09344 0.001 0.001
11:52 pm 23:52 Cloudy 51 10.6 37 2.8 59 59 SSW 13 20 29.97 1015 10 16.09344 0.001 0.001

Powered by AerisWeather